#timestamp,LO_Frequency,Hit,StdDev 
1540594815.6,286047001.5,N
1540594835.4,286047001.9,P
1540594855.2,286046999.9,N
1540594875.1,286047000.5,N
1540594876.0,286047000.5,N
1540594895.8,286047002.8,Y
1540594915.7,286046998.4,P
1540594935.5,286047002.4,N
1540594955.3,286047002.1,N
1540594975.2,286047001.8,N
1540594995.0,286047005.1,Y
1540594995.9,286047005.1,P
1540595015.8,286047006.0,P
1540595035.6,286047003.0,N
1540595055.4,286047003.9,N
1540595075.3,286047001.5,N
1540595095.1,286047002.6,N
1540595096.0,286047002.6,N
1540595115.8,286046999.8,N
1540595135.7,286047001.7,N
1540595155.5,286047003.6,N
1540595175.3,286047003.2,N
1540595195.2,286046999.8,N
1540595215.0,286047002.7,N
1540595215.9,286047002.7,N
1540595235.8,286046999.8,N
1540595255.6,286047001.7,N
1540595275.4,286047002.6,N
1540595295.3,286046999.9,N
1540595315.1,286047000.4,N
1540595335.8,286047000.3,N
1540595355.7,286046999.8,N
1540595375.5,286046999.7,N
1540595395.4,286047000.1,N
1540595415.2,286047004.2,N
1540595435.0,286047004.2,N
1540595435.9,286047004.2,N
1540595455.8,286047001.5,N
1540595475.6,286046999.9,N
1540595495.4,286047002.7,N
1540595515.3,286047002.8,N
1540595535.1,286047003.4,N
1540595555.9,286047004.1,N
1540595575.7,286047004.0,N
1540595595.5,286047003.2,N
1540595615.4,286047003.3,N
1540595635.2,286047002.9,N
1540595655.0,286047003.7,N
1540595655.9,286047003.7,N
1540595675.8,286047003.8,N
1540595695.6,286047003.5,N
1540595715.5,286047005.8,Y
1540595735.3,286047001.5,P
1540595755.1,286047001.4,P
1540595775.9,286047004.7,P
1540595795.7,286047005.5,Y
1540595815.6,286047004.3,P
1540595835.4,286047004.2,P
1540595855.2,286047003.6,P
1540595875.1,286047003.7,Y
1540595876.0,286047003.7,P
1540595895.8,286046999.2,P
1540595915.6,286046997.1,N
1540595935.5,286046997.3,N
1540595955.3,286047000.7,N
1540595975.2,286046999.8,N
1540595995.9,286046998.7,N
1540596015.7,286046999.7,N
1540596035.6,286047001.9,N
1540596055.4,286047001.9,N
1540596075.2,286047001.6,N
1540596095.1,286047002.2,N
1540596096.0,286047002.2,N
1540596115.8,286047000.1,N
1540596135.7,286047000.8,N
1540596155.5,286046998.5,N
1540596175.3,286046997.0,N
1540596195.2,286046999.1,N
1540596215.0,286046998.3,N
1540596215.9,286046998.3,N
1540596235.7,286046998.5,N
1540596255.6,286046999.8,N
1540596275.4,286047001.8,N
1540596295.3,286047002.6,N
1540596315.1,286047001.7,N
1540596316.0,286047001.7,N
1540596335.8,286047001.3,N
1540596355.7,286047002.3,N
1540596375.5,286047001.5,N
1540596395.3,286047001.5,N
1540596415.2,286047000.2,N
1540596435.0,286047000.3,N
1540596435.9,286047000.3,N
1540596455.8,286046999.8,N
1540596475.6,286046999.1,N
1540596495.4,286046995.0,Y
1540596515.3,286046997.0,P
1540596535.1,286047000.1,N
1540596555.8,286047003.8,N
1540596575.7,286047005.9,N
1540596595.5,286047005.6,N
1540596615.4,286047003.8,N
1540596635.2,286047005.8,N
1540596655.0,286047004.1,N
1540596655.9,286047004.1,N
1540596675.8,286047002.8,N
1540596695.6,286047002.2,N
1540596715.4,286047001.5,N
1540596735.3,286047001.9,N
1540596755.1,286047004.3,N
1540596775.9,286047001.7,N
1540596795.7,286047002.1,N
1540596815.5,286047001.5,N
1540596835.4,286047002.3,N
1540596855.2,286047002.6,N
1540596875.0,286047002.1,N
1540596875.9,286047002.1,N
1540596895.8,286047002.1,N
1540596915.6,286047003.9,N
1540596935.4,286047003.4,N
1540596955.3,286047003.6,N
1540596975.1,286047003.6,N
1540596995.9,286047003.7,N
1540597015.7,286047005.1,N
1540597035.5,286047004.7,N
1540597055.4,286047007.2,Y
1540597075.2,286047001.7,P
1540597095.0,286047001.6,N
1540597095.9,286047001.6,N
1540597115.8,286047002.8,Y
1540597135.6,286046997.7,P
1540597155.5,286046996.7,N
1540597175.3,286046997.0,N
1540597195.1,286046996.6,N
1540597215.9,286046996.7,N
1540597235.7,286046998.4,N
1540597255.5,286046998.7,N
1540597275.4,286046998.8,N
1540597295.2,286047001.1,N
1540597315.1,286047000.6,N
1540597316.0,286047000.6,N
1540597335.8,286046999.9,N
1540597355.6,286047000.6,N
1540597375.5,286046999.8,N
1540597395.3,286047001.1,N
1540597415.1,286046999.0,N
1540597435.9,286046999.8,N
1540597455.7,286047002.1,N
1540597475.6,286047001.1,N
1540597495.4,286047000.7,N
1540597515.2,286047002.6,N
1540597535.1,286046998.8,N
1540597536.0,286046998.8,N
1540597555.8,286046998.3,N
1540597575.7,286046998.5,N
1540597595.5,286046996.9,N
1540597615.3,286047001.1,N
1540597635.2,286047001.1,N
1540597655.0,286047000.9,N
1540597655.9,286047000.9,N
1540597675.8,286046998.4,N
1540597695.6,286046998.1,N
1540597715.4,286047001.2,N
1540597735.3,286047000.0,N
1540597755.1,286047000.9,N
1540597775.8,286047002.4,N
1540597795.7,286046998.1,N
1540597815.5,286046998.4,N
1540597835.4,286047001.2,N
1540597855.2,286047001.2,N
1540597875.0,286046999.4,N
1540597875.9,286046999.4,N
1540597895.8,286047000.7,N
1540597915.6,286047000.7,N
1540597935.4,286047002.0,N
1540597955.3,286046999.7,N
1540597975.1,286046999.9,N
1540597995.8,286046998.2,N
1540598015.7,286046998.2,N
1540598035.5,286047002.8,N
1540598055.4,286047000.1,N
1540598075.2,286047002.6,N
1540598095.0,286047002.2,N
1540598095.9,286047002.2,N
1540598115.8,286047003.7,N
1540598135.6,286047005.9,Y
1540598155.5,286047005.9,P
1540598175.3,286047007.6,N
1540598195.1,286047004.9,N
1540598215.9,286047003.5,N
1540598235.7,286047003.0,N
1540598255.5,286047003.9,N
1540598275.4,286047004.0,N
1540598295.2,286047001.3,N
1540598315.0,286047005.1,N
1540598316.0,286047005.1,N
1540598335.8,286047005.4,N
1540598355.6,286047005.9,Y
1540598375.5,286047000.1,P
1540598395.3,286047002.8,N
